sat.trackr.live / text

‹ back to catalog

CAPELLA-19 (ACADIA-9)

NORAD 67384 · 2026-004X

PAYLOAD ACTIVE UNKNOWN

§ Identity

Operator
Country
US
Launch date
2026-01-11
Launch site
AFWTR
Launch vehicle
Mass (kg)
RCS (m²)

External: N2YO · Heavens-Above · Gunter

§ Orbital elements

Epoch: 2026-05-24T23:28:17.769216Z

Period
96.86 min
Inclination
97.7998°
Eccentricity
0.0001404
Mean motion
14.86660901 rev/d
Perigee alt
607.4 km
Apogee alt
609.4 km
Semi-major
6,986.5 km
B*
4.3027e-4
RAAN
143.7791°
Arg perigee
92.3457°
Mean anomaly
267.7920°
Rev number
1,982

§ Raw data

CAPELLA-19 (ACADIA-9)1 67384U 26004X   26144.97798344  .00003768  00000+0  43027-3 0  99902 67384  97.7998 143.7791 0001404  92.3457 267.7920 14.86660901 19824

JSON: /api/v1/satellites/67384 · /tle

For live sub-satellite position, see the globe view (requires WebGL).

§ Visibility from observer

Set your observer location to see the next 7 days of passes ≥ 10°. The values pass through the URL so the page stays shareable.

No JS? Fill the form by hand. The geolocation button needs JavaScript.